This is the latest recevied weather packets stored in our database for station/object K4PAD. If no packets are shown the sender has not sent any weather packets the latest 10 day(s).
| Time | Temp. | Humidity | Pressure | Rain* | Wind** | Luminosity | Snow |
|---|---|---|---|---|---|---|---|
| 1778078213 | 26.67° C | 62% | 1018.3 hPa | 0 mm | - | 454 W/m² | - |
| 1778077911 | 26.67° C | 63% | 1018.5 hPa | 0 mm | - | 666 W/m² | - |
| 1778077609 | 25.56° C | 65% | 1018.3 hPa | 0 mm | - | 672 W/m² | - |
| 1778077307 | 25.56° C | 65% | 1018.4 hPa | 0 mm | - | 544 W/m² | - |
| 1778077004 | 25.56° C | 65% | 1018.5 hPa | 0 mm | - | 586 W/m² | - |
| 1778076703 | 25.56° C | 66% | 1018.4 hPa | 0 mm | - | 648 W/m² | - |
| 1778076400 | 25.56° C | 67% | 1018.4 hPa | 0 mm | - | 665 W/m² | - |
| 1778076097 | 25° C | 68% | 1018.5 hPa | 0 mm | - | 607 W/m² | - |
| 1778075794 | 25° C | 68% | 1018.4 hPa | 0 mm | - | 588 W/m² | - |
| 1778075490 | 25° C | 68% | 1018.6 hPa | 0 mm | - | 533 W/m² | - |
| 1778075187 | 25° C | 69% | 1018.6 hPa | 0 mm | - | 502 W/m² | - |
| 1778074882 | 24.44° C | 70% | 1018.5 hPa | 0 mm | - | 527 W/m² | - |
| 1778074580 | 24.44° C | 70% | 1018.7 hPa | 0 mm | - | 451 W/m² | - |
| 1778074277 | 24.44° C | 71% | 1018.4 hPa | 0 mm | - | 451 W/m² | - |
| 1778073974 | 23.89° C | 71% | 1018.6 hPa | 0 mm | - | 475 W/m² | - |
| 1778073671 | 23.89° C | 71% | 1018.8 hPa | 0 mm | - | 458 W/m² | - |
| 1778073368 | 23.89° C | 72% | 1018.5 hPa | 0 mm | - | 399 W/m² | - |
| 1778073064 | 23.33° C | 73% | 1018.5 hPa | 0 mm | - | 405 W/m² | - |
| 1778072762 | 22.78° C | 74% | 1018.5 hPa | 0 mm | - | 383 W/m² | - |
| 1778072458 | 22.78° C | 72% | 1018.5 hPa | 0 mm | - | 348 W/m² | - |
| 1778072157 | 22.22° C | 74% | 1018.5 hPa | 0 mm | - | 329 W/m² | - |
| 1778071854 | 21.67° C | 76% | 1018.5 hPa | 0 mm | - | 338 W/m² | - |
| 1778071552 | 21.67° C | 75% | 1018.2 hPa | 0 mm | - | 248 W/m² | - |
| 1778071249 | 21.11° C | 76% | 1018.3 hPa | 0 mm | - | 263 W/m² | - |
| 1778070947 | 21.11° C | 78% | 1018.1 hPa | 0 mm | - | 156 W/m² | - |
* Rain latest hour (hover to see other rain measurements)
** Current wind speed in m/s (hover to see current wind gust speed)